Clyde, Nunavut

1:44 AM AST on November 23, 2017 (GMT -0400)
Clyde

Weather History for CYCY - October, 2012

Change the Weather History Date:

Sunday, October 14, 2012

  Actual Average Record
Temperature  
Mean Temperature 28 °F -  
Max Temperature 32 °F 16 °F 35 °F (2002)
Min Temperature 23 °F 5 °F 3 °F (2017)
Degree Days  
Heating Degree Days 38    
Moisture  
Dew Point 27 °F    
Average Humidity 93    
Maximum Humidity 100    
Minimum Humidity 68    
Precipitation  
Precipitation 0.00 in 0.04 in - ()
Sea Level Pressure  
Sea Level Pressure 29.57 in    
Wind  
Wind Speed 9 mph ()    
Max Wind Speed 21 mph    
Max Gust Speed 22 mph    
Visibility 7.8 miles    
Events Snow    
Averages and records for this station are not official NWS values.
T = Trace of Precipitation, MM = Missing Value Source: Averaged Metar Reports

Daily Weather History Graph

Daily Weather History Graph

Search for Another Location

Airport or City:

Trip Planner

Search our weather history database for the weather conditions in past years. The results will help you decide how hot, cold, wet, or windy it might be!

Date:

Astronomy

Oct. 14, 2012 Rise Set
Actual Time 8:47 AM ADT 5:50 PM ADT
Civil Twilight 7:42 AM ADT 6:55 PM ADT
Nautical Twilight 6:30 AM ADT 8:06 PM ADT
Astronomical Twilight 5:14 AM ADT 9:22 PM ADT
Moon 7:33 AM ADT (10/14) 5:01 PM ADT (10/14)
Length of Visible Light 11h 12m
Length of Day
9h 03m
Waning Crescent, 1% of the Moon is Illuminated
Oct 14
Waning Crescent
Oct 15
New
Oct 22
First Quarter
Oct 29
Full
Nov 6
Last Quarter

Hourly Weather History & Observations

Time (ADT) Temp. Windchill Dew Point Humidity Pressure Visibility Wind Dir Wind Speed Gust Speed Precip Events Conditions
12:00 AM 32 °F - 31 °F 93%  in 9 mi North 11.5 mph - -   Overcast
12:00 AM 32.0 °F 23.0 °F 30.2 °F 93% 29.53 in 9.0 mi North 11.5 mph - N/A   Overcast
12:03 AM 32.0 °F 22.1 °F 32.0 °F 100% 29.52 in 9.0 mi North 13.8 mph - N/A   Overcast
12:49 AM 32.0 °F 24.8 °F 32.0 °F 100% 29.52 in 9.0 mi North 8.1 mph - N/A   Overcast
1:00 AM 32.0 °F 23.0 °F 30.2 °F 93% 29.53 in 9.0 mi North 11.5 mph - N/A   Overcast
1:37 AM 32.0 °F 22.1 °F 32.0 °F 100% 29.51 in 9.0 mi North 13.8 mph - N/A   Overcast
1:52 AM 32.0 °F 22.5 °F 32.0 °F 100% 29.51 in 9.0 mi NNW 12.7 mph - N/A   Overcast
2:00 AM 32.0 °F 22.5 °F 30.2 °F 93% 29.52 in 9.0 mi NNW 12.7 mph - N/A   Overcast
2:21 AM 32.0 °F 21.2 °F 32.0 °F 100% 29.51 in 9.0 mi NNW 16.1 mph - N/A   Overcast
2:45 AM 32.0 °F 21.6 °F 30.2 °F 93% 29.50 in 9.0 mi NNW 15.0 mph - N/A   Overcast
3:00 AM 30 °F - 29 °F 96% 29.52 in 9 mi NNW 15.0 mph - -   Overcast
3:00 AM 30.2 °F 19.3 °F 30.2 °F 100% 29.52 in 9.0 mi NNW 15.0 mph - N/A   Overcast
3:09 AM 30.2 °F 17.4 °F 28.4 °F 93% 29.50 in 2.5 mi NW 20.7 mph - N/A   Overcast
3:11 AM 30.2 °F 18.5 °F 30.2 °F 100% 29.50 in 1.4 mi NW 17.3 mph - N/A Snow Light Snow
3:15 AM 30.2 °F 22.6 °F 30.2 °F 100% 29.50 in 0.6 mi NNW 8.1 mph 21.9 mph N/A Snow Light Snow
3:17 AM 30.2 °F 23.4 °F 30.2 °F 100% 29.50 in 0.6 mi NNW 6.9 mph 21.9 mph N/A Snow Light Snow
3:35 AM 30.2 °F - 30.2 °F 100% 29.50 in 1.1 mi Calm Calm - N/A Snow Light Snow
3:40 AM 30.2 °F - 30.2 °F 100% 29.50 in 4.0 mi WNW 2.3 mph - N/A Snow Light Snow
3:50 AM 30.2 °F 25.4 °F 30.2 °F 100% 29.50 in 9.0 mi WNW 4.6 mph - N/A   Overcast
4:00 AM 30.2 °F 24.3 °F 30.2 °F 100% 29.52 in 9.0 mi NNW 5.8 mph - N/A   Overcast
4:38 AM 30.2 °F 24.3 °F 28.4 °F 93% 29.50 in 9.0 mi WNW 5.8 mph - N/A   Overcast
4:47 AM 30.2 °F 26.7 °F 28.4 °F 93% 29.50 in 9.0 mi West 3.5 mph - N/A   Overcast
4:57 AM 30.2 °F 26.7 °F 28.4 °F 93% 29.50 in 9.0 mi West 3.5 mph - N/A   Overcast
5:00 AM 30.2 °F 26.7 °F 28.4 °F 93% 29.51 in 9.0 mi WSW 3.5 mph - N/A   Overcast
5:32 AM 30.2 °F 21.3 °F 30.2 °F 100% 29.50 in 9.0 mi WNW 10.4 mph - N/A   Overcast
6:00 AM 30 °F - 29 °F 92% 29.50 in 9 mi WNW 17.3 mph - -   Overcast
6:00 AM 30.2 °F 17.4 °F 28.4 °F 93% 29.50 in 9.0 mi WNW 20.7 mph - N/A   Overcast
6:44 AM 30.2 °F 19.8 °F 30.2 °F 100% 29.50 in 2.5 mi West 13.8 mph - N/A   Overcast
7:00 AM 28.4 °F 19.7 °F 28.4 °F 100% 29.51 in 9.0 mi West 9.2 mph - N/A   Overcast
7:02 AM 28.4 °F 19.7 °F 28.4 °F 100% 29.50 in 9.0 mi WSW 9.2 mph - N/A   Overcast
7:22 AM 30.2 °F 24.3 °F 28.4 °F 93% 29.50 in 9.0 mi WSW 5.8 mph - N/A Snow Light Snow
7:41 AM 30.2 °F 24.3 °F 30.2 °F 100% 29.50 in 2.5 mi WSW 5.8 mph - N/A Snow Light Snow
7:52 AM 30.2 °F 24.3 °F 30.2 °F 100% 29.50 in 2.5 mi WSW 5.8 mph - N/A   Mostly Cloudy
7:55 AM 30.2 °F 24.3 °F 28.4 °F 93% 29.50 in 9.0 mi WSW 5.8 mph - N/A   Mostly Cloudy
8:00 AM 30.2 °F 24.3 °F 28.4 °F 93% 29.52 in 9.0 mi WSW 5.8 mph - N/A   Mostly Cloudy
8:45 AM 30.2 °F 21.3 °F 28.4 °F 93% 29.51 in 9.0 mi SW 10.4 mph - N/A   Overcast
9:00 AM 31 °F - 28 °F 82% 29.52 in 9 mi WSW 8.1 mph - -   Overcast
9:00 AM 30.2 °F 22.6 °F 28.4 °F 93% 29.52 in 25.0 mi WSW 8.1 mph - N/A   Overcast
9:01 AM 32.0 °F 23.6 °F 28.4 °F 87% 29.51 in 9.0 mi WSW 10.4 mph - N/A   Overcast
10:00 AM 30.2 °F 24.3 °F 26.6 °F 86% 29.53 in 25.0 mi SW 5.8 mph - N/A   Overcast
11:00 AM 30.2 °F 21.9 °F 26.6 °F 86% 29.54 in 25.0 mi West 9.2 mph - N/A   Overcast
12:00 PM 31 °F - 26 °F 76% 29.55 in 9 mi WSW 3.5 mph - -   Overcast
12:00 PM 30.2 °F 26.7 °F 26.6 °F 86% 29.55 in 25.0 mi SW 3.5 mph - N/A   Overcast
1:00 PM 30.2 °F 26.7 °F 26.6 °F 86% 29.57 in 25.0 mi West 3.5 mph - N/A   Mostly Cloudy
2:00 PM 32.0 °F 26.4 °F 24.8 °F 75% 29.59 in 25.0 mi SSW 5.8 mph - N/A   Mostly Cloudy
3:00 PM 32 °F - 25 °F 68% 29.61 in 9 mi SW 2.3 mph - -   Overcast
3:00 PM 32.0 °F - 26.6 °F 80% 29.61 in 25.0 mi SSW 2.3 mph - N/A   Mostly Cloudy
4:00 PM 30.2 °F 19.3 °F 28.4 °F 93% 29.63 in 25.0 mi NNW 15.0 mph - N/A   Mostly Cloudy
5:00 PM 26.6 °F 16.2 °F 26.6 °F 100% 29.66 in 9.0 mi NNW 11.5 mph - N/A   Overcast
6:00 PM 27 °F - 25 °F 91% 29.68 in 9 mi NW 10.4 mph - -   Overcast
6:00 PM 26.6 °F 17.5 °F 24.8 °F 93% 29.68 in 9.0 mi NNW 9.2 mph - N/A   Overcast
7:00 PM 23.0 °F 14.7 °F 21.2 °F 93% 29.69 in 9.0 mi WNW 6.9 mph - N/A   Mostly Cloudy
7:11 PM 23.0 °F 11.7 °F 21.2 °F 93% 29.67 in 9.0 mi WNW 11.5 mph - N/A   Mostly Cloudy
8:00 PM 24.8 °F 16.9 °F 21.2 °F 86% 29.71 in 9.0 mi West 6.9 mph - N/A   Overcast
8:51 PM 23.0 °F 17.0 °F 21.2 °F 93% 29.73 in 9.0 mi West 4.6 mph - N/A   Scattered Clouds
8:56 PM 23.0 °F 17.0 °F 21.2 °F 93% 29.73 in 9.0 mi West 4.6 mph - N/A   Mostly Cloudy
9:00 PM 23 °F - 21 °F 91% 29.75 in 9 mi West 4.6 mph - -  
9:00 PM 23.0 °F 17.0 °F 21.2 °F 93% 29.75 in 9.0 mi West 4.6 mph - N/A   Mostly Cloudy
9:40 PM 24.8 °F 17.9 °F 23.0 °F 93% 29.75 in 9.0 mi WSW 5.8 mph - N/A   Scattered Clouds
9:55 PM 24.8 °F 16.9 °F 23.0 °F 93% 29.75 in 9.0 mi WSW 6.9 mph - N/A   Mostly Cloudy
10:00 PM 23.0 °F 14.7 °F 21.2 °F 93% 29.77 in 9.0 mi West 6.9 mph - N/A   Mostly Cloudy
10:17 PM 24.8 °F 16.9 °F 21.2 °F 86% 29.75 in 9.0 mi West 6.9 mph - N/A   Mostly Cloudy
11:00 PM 24.8 °F 16.9 °F 21.2 °F 86% 29.76 in 9.0 mi SW 6.9 mph - N/A   Partly Cloudy